Location: Bemmer
(51.5498°N, 5.6249°E)
Time: 13:14:20
(UTC+00:00)

Cosmos 1943 Rocket - Pass Details

Date: 03 March 2021
Orbit: 811 x 845 km, 71.0° (Epoch: 10 April)

Event Time Altitude Azimuth Distance (km) Brightness Sun altitude
Rises 20:41:48 0° 331° (NNW) 3,417 6.2 -30.7°
Reaches altitude 10° 20:44:25 10° 338° (NNW) 2,478 5.2 -31.1°
Enters shadow 20:48:14 34° 12° (NNE) 1,373 3.4 -31.6°
